When you browse on this site, cookies collect data to enhance your experience and personalize the content and advertising you see.
Visit our Privacy Policy to learn more. By continuing to use the site, you agree to this use of cookies and data.
  • In Czech Republic
  • List of Countries
  • For 7 days
  • Water Temperature
  • Satellite Maps
  • Weather Map
  • Weather Widgets
  • user-avatar
    Login

    Hourly Weather Kunming

    Today, 21 March, Thursday

    Time Temperature Precipitation Wind Pressure Humidity
    00:00 +10°C° 0 mm 4 mps 588 mmHg 64%
    01:00 +10°C° 0 mm 4 mps 588 mmHg 65%
    02:00 +8°C° 0 mm 4 mps 588 mmHg 65%
    03:00 +8°C° 0 mm 4 mps 588 mmHg 66%
    04:00 +8°C° 0 mm 4 mps 587 mmHg 66%
    05:00 +8°C° 0 mm 4 mps 587 mmHg 65%
    06:00 +8°C° 0 mm 4 mps 588 mmHg 64%
    07:00 +8°C° 0 mm 4 mps 588 mmHg 63%
    08:00 +10°C° 0 mm 5 mps 589 mmHg 51%
    09:00 +14°C° 0 mm 7 mps 590 mmHg 40%
    10:00 +17°C° 0 mm 8 mps 591 mmHg 29%
    11:00 +18°C° 0 mm 9 mps 591 mmHg 25%
    12:00 +19°C° 0 mm 9 mps 591 mmHg 22%
    13:00 +22°C° 0 mm 9 mps 591 mmHg 19%
    14:00 +22°C° 0 mm 9 mps 591 mmHg 19%
    15:00 +22°C° 0 mm 9 mps 590 mmHg 19%
    16:00 +22°C° 0 mm 9 mps 590 mmHg 19%
    17:00 +20°C° 0 mm 7 mps 589 mmHg 21%
    18:00 +17°C° 0 mm 6 mps 589 mmHg 23%
    19:00 +15°C° 0 mm 5 mps 589 mmHg 25%
    20:00 +14°C° 0 mm 4 mps 589 mmHg 28%
    21:00 +13°C° 0 mm 4 mps 589 mmHg 30%
    22:00 +12°C° 0 mm 4 mps 589 mmHg 33%
    23:00 +12°C° 0 mm 4 mps 589 mmHg 36%

    Tomorrow, 22 March, Friday

    Time Temperature Precipitation Wind Pressure Humidity
    00:00 +11°C° 0 mm 4 mps 589 mmHg 39%
    01:00 +10°C° 0 mm 3 mps 588 mmHg 41%
    02:00 +10°C° 0 mm 3 mps 588 mmHg 43%
    03:00 +9°C° 0 mm 3 mps 588 mmHg 44%
    04:00 +9°C° 0 mm 3 mps 587 mmHg 45%
    05:00 +9°C° 0 mm 2 mps 587 mmHg 46%
    06:00 +9°C° 0 mm 2 mps 588 mmHg 48%
    07:00 +10°C° 0 mm 1 mps 588 mmHg 49%
    08:00 +13°C° 0 mm 2 mps 589 mmHg 43%
    09:00 +14°C° 0 mm 4 mps 591 mmHg 37%
    10:00 +17°C° 0 mm 5 mps 592 mmHg 31%
    11:00 +20°C° 0 mm 5 mps 592 mmHg 29%
    12:00 +21°C° 0 mm 5 mps 592 mmHg 26%
    13:00 +23°C° 0 mm 5 mps 592 mmHg 23%
    14:00 +23°C° 0 mm 5 mps 591 mmHg 22%
    15:00 +23°C° 0 mm 5 mps 591 mmHg 22%
    16:00 +23°C° 0 mm 6 mps 590 mmHg 21%
    17:00 +21°C° 0 mm 5 mps 590 mmHg 25%
    18:00 +19°C° 0 mm 4 mps 589 mmHg 29%
    19:00 +17°C° 0 mm 3 mps 589 mmHg 34%
    20:00 +15°C° 0 mm 2 mps 589 mmHg 37%
    21:00 +14°C° 0 mm 1 mps 589 mmHg 41%
    22:00 +13°C° 0 mm 1 mps 589 mmHg 44%
    23:00 +12°C° 0 mm 1 mps 589 mmHg 46%

    Day after tomorrow, 23 March, Saturday

    Time Temperature Precipitation Wind Pressure Humidity
    00:00 +12°C° 0 mm 1 mps 589 mmHg 47%
    01:00 +11°C° 0 mm 1 mps 589 mmHg 49%
    02:00 +11°C° 0 mm 1 mps 589 mmHg 50%
    03:00 +10°C° 0 mm 1 mps 588 mmHg 52%
    04:00 +9°C° 0 mm 0 mps 588 mmHg 54%
    05:00 +10°C° 0 mm 1 mps 589 mmHg 54%
    06:00 +10°C° 0 mm 1 mps 589 mmHg 53%
    07:00 +11°C° 0 mm 1 mps 590 mmHg 53%
    08:00 +14°C° 0 mm 1 mps 591 mmHg 44%
    09:00 +17°C° 0 mm 2 mps 593 mmHg 36%
    10:00 +20°C° 0 mm 2 mps 594 mmHg 27%
    11:00 +21°C° 0 mm 3 mps 594 mmHg 25%
    12:00 +23°C° 0 mm 5 mps 593 mmHg 23%
    13:00 +24°C° 0 mm 6 mps 593 mmHg 20%
    14:00 +23°C° 0 mm 6 mps 592 mmHg 21%
    15:00 +23°C° 0 mm 6 mps 591 mmHg 22%
    16:00 +23°C° 0 mm 6 mps 590 mmHg 22%
    17:00 +21°C° 0 mm 5 mps 590 mmHg 26%
    18:00 +19°C° 0 mm 4 mps 590 mmHg 30%
    19:00 +18°C° 0 mm 3 mps 590 mmHg 34%
    20:00 +17°C° 0 mm 3 mps 590 mmHg 38%
    21:00 +15°C° 0 mm 2 mps 590 mmHg 42%
    22:00 +14°C° 0 mm 1 mps 590 mmHg 46%
    23:00 +13°C° 0 mm 1 mps 589 mmHg 49%

    24 March, Sunday

    Time Temperature Precipitation Wind Pressure Humidity
    00:00 +13°C° 0 mm 1 mps 589 mmHg 51%
    01:00 +12°C° 0 mm 1 mps 588 mmHg 54%
    02:00 +12°C° 0 mm 1 mps 588 mmHg 57%
    03:00 +10°C° 0 mm 0 mps 588 mmHg 60%
    04:00 +9°C° 0 mm 0 mps 587 mmHg 62%
    05:00 +10°C° 0 mm 0 mps 588 mmHg 62%
    06:00 +11°C° 0 mm 1 mps 588 mmHg 62%
    07:00 +11°C° 0 mm 1 mps 589 mmHg 62%
    08:00 +13°C° 0 mm 3 mps 590 mmHg 51%
    09:00 +17°C° 0 mm 5 mps 591 mmHg 40%
    10:00 +21°C° 0 mm 7 mps 592 mmHg 30%
    11:00 +21°C° 0 mm 8 mps 592 mmHg 27%
    12:00 +22°C° 0 mm 9 mps 591 mmHg 24%
    13:00 +23°C° 0 mm 9 mps 591 mmHg 22%
    14:00 +23°C° 0 mm 9 mps 590 mmHg 21%
    15:00 +23°C° 0 mm 9 mps 590 mmHg 19%
    16:00 +24°C° 0 mm 10 mps 589 mmHg 18%
    17:00 +22°C° 0 mm 8 mps 589 mmHg 20%
    18:00 +20°C° 0 mm 7 mps 589 mmHg 21%
    19:00 +17°C° 0 mm 5 mps 589 mmHg 23%
    20:00 +16°C° 0 mm 5 mps 589 mmHg 24%
    21:00 +15°C° 0 mm 4 mps 590 mmHg 26%
    22:00 +14°C° 0 mm 4 mps 590 mmHg 27%
    23:00 +13°C° 0 mm 3 mps 590 mmHg 28%

    25 March, Monday

    Time Temperature Precipitation Wind Pressure Humidity
    00:00 +12°C° 0 mm 3 mps 589 mmHg 28%
    01:00 +12°C° 0 mm 2 mps 589 mmHg 28%
    02:00 +10°C° 0 mm 2 mps 589 mmHg 30%
    03:00 +11°C° 0 mm 1 mps 588 mmHg 31%
    04:00 +10°C° 0 mm 1 mps 588 mmHg 33%
    05:00 +10°C° 0 mm 1 mps 589 mmHg 34%
    06:00 +9°C° 0 mm 0 mps 589 mmHg 35%
    07:00 +10°C° 0 mm 0 mps 590 mmHg 37%
    08:00 +14°C° 0 mm 2 mps 592 mmHg 29%
    09:00 +18°C° 0 mm 3 mps 593 mmHg 22%
    10:00 +21°C° 0 mm 4 mps 594 mmHg 15%
    11:00 +22°C° 0 mm 5 mps 594 mmHg 14%
    12:00 +24°C° 0 mm 6 mps 594 mmHg 12%
    13:00 +26°C° 0 mm 7 mps 593 mmHg 11%
    14:00 +26°C° 0 mm 7 mps 593 mmHg 11%
    15:00 +26°C° 0 mm 7 mps 592 mmHg 11%
    16:00 +26°C° 0 mm 8 mps 592 mmHg 12%
    17:00 +23°C° 0 mm 6 mps 591 mmHg 15%
    18:00 +20°C° 0 mm 5 mps 591 mmHg 19%
    19:00 +18°C° 0 mm 3 mps 591 mmHg 23%
    20:00 +17°C° 0 mm 3 mps 591 mmHg 25%
    21:00 +16°C° 0 mm 2 mps 591 mmHg 28%
    22:00 +15°C° 0 mm 2 mps 591 mmHg 31%
    23:00 +14°C° 0 mm 1 mps 591 mmHg 33%

    26 March, Tuesday

    Time Temperature Precipitation Wind Pressure Humidity
    00:00 +13°C° 0 mm 1 mps 590 mmHg 35%
    01:00 +13°C° 0 mm 1 mps 590 mmHg 38%
    02:00 +12°C° 0 mm 1 mps 590 mmHg 39%
    03:00 +12°C° 0 mm 1 mps 589 mmHg 41%
    04:00 +11°C° 0 mm 1 mps 589 mmHg 42%
    05:00 +12°C° 0 mm 1 mps 590 mmHg 43%
    06:00 +12°C° 0 mm 1 mps 590 mmHg 43%
    07:00 +13°C° 0 mm 1 mps 591 mmHg 44%
    08:00 +16°C° 0 mm 3 mps 592 mmHg 36%
    09:00 +19°C° 0 mm 5 mps 593 mmHg 29%
    10:00 +23°C° 0 mm 6 mps 595 mmHg 22%
    11:00 +24°C° 0 mm 7 mps 594 mmHg 20%
    12:00 +26°C° 0 mm 7 mps 594 mmHg 17%
    13:00 +27°C° 0 mm 8 mps 593 mmHg 15%
    14:00 +27°C° 0 mm 8 mps 593 mmHg 15%
    15:00 +27°C° 0 mm 8 mps 592 mmHg 15%
    16:00 +26°C° 0 mm 8 mps 592 mmHg 15%
    17:00 +23°C° 0 mm 6 mps 591 mmHg 18%
    18:00 +21°C° 0 mm 5 mps 591 mmHg 21%
    19:00 +19°C° 0 mm 3 mps 590 mmHg 25%
    20:00 +18°C° 0 mm 3 mps 590 mmHg 27%
    21:00 +17°C° 0 mm 2 mps 590 mmHg 30%
    22:00 +16°C° 0 mm 2 mps 590 mmHg 33%
    23:00 +15°C° 0 mm 1 mps 590 mmHg 37%
    Show more